Content
SEND FEEDBACK

Daily
Averages
Monthly
Summary
United States of America

LA JUNTA, COLORADO


Home > North America > United States > Colorado
Elevation: 4238 feet     Latitude: 38 03N     Longitude: 103 30W

WEATHER
 
SELECT A DAY
Number of Records: 188,550;   Date Range: 1/1/95 - 10/19/14
 
SHARE

PRINT THIS DATA

[ ← Previous Day ]
WEATHER ALMANAC - JANUARY 31, 2013
[ Next Day → ]
[ °C ]   °F
Weather ElementAverageHighLow
Temperature34.1 °F48 °F (3:53 pm)23 °F (11:53 pm)
Dewpoint18.2 °F21.9 °F (5:53 pm)14 °F (6:53 am)
Humidity54.3 %88 % (11:53 pm)32 % (3:53 pm)
Barometer30.09 in30.20 in (8:53 pm)29.94 in (3:53 am)
Wind Speed11.1 mph16.1 mph (4:53 am)
Weather ElementAverage
Visibility10 mi
Wind DirectionSSE (154 °)

Weather ElementTotal
Precipitation---
Heating Degree Days29.5 (Base 65)
Averaged from 20 records on January 31, 2013
WEATHER CONDITIONS BREAKOUT
WIND DIRECTION BREAKOUT
WEATHER BY HOUR - JANUARY 31, 2013
[ °C ]   °F
Local TimeTemperatureDewpointHumidityBarometerVisibilityWind DirectionWind SpeedGust SpeedPrecipitationEventsConditions
1:53 AM27.0 °F16.0 °F63 %29.95 in10.0 miWSW (250°)13.8 mphClear
2:53 AM26.1 °F16.0 °F66 %29.95 in10.0 miWest (270°)13.8 mphClear
3:53 AM27.0 °F15.1 °F61 %29.94 in10.0 miWest (260°)15.0 mphClear
4:53 AM27.0 °F15.1 °F61 %29.96 in10.0 miWSW (250°)16.1 mphClear
5:53 AM28.0 °F15.1 °F58 %29.99 in10.0 miWSW (240°)12.7 mphClear
6:53 AM27.0 °F14.0 °F58 %30.04 in10.0 miWest (260°)16.1 mphClear
7:53 AM30.9 °F14.0 °F50 %30.07 in10.0 miWest (270°)15.0 mphClear
8:53 AM30.9 °F16.0 °F54 %30.12 in10.0 miENE (60°)6.9 mphClear
9:53 AM36.0 °F18.0 °F48 %30.14 in10.0 miNE (50°)12.7 mphClear
10:53 AM39.0 °F19.9 °F46 %30.18 in10.0 miENE (60°)9.2 mphClear
11:53 AM42.1 °F19.9 °F41 %30.16 in10.0 miEast (100°)8.1 mphClear
12:53 PM44.1 °F19.9 °F38 %30.12 in10.0 miSE (130°)6.9 mphClear
1:53 PM46.9 °F19.9 °F34 %30.10 in10.0 miESE (120°)5.8 mphClear
2:53 PM46.9 °F19.0 °F33 %30.11 in10.0 miSSE (150°)4.6 mphClear
3:53 PM48.0 °F19.0 °F32 %30.11 in10.0 miSE (130°)11.5 mphClear
5:53 PM37.0 °F21.9 °F54 %30.15 in10.0 miEast (100°)9.2 mphClear
6:53 PM35.1 °F21.9 °F59 %30.18 in10.0 miEast (100°)11.5 mphClear
7:53 PM32.0 °F21.9 °F66 %30.18 in10.0 miEast (90°)12.7 mphClear
8:53 PM28.9 °F21.9 °F75 %30.20 in10.0 miEast (90°)12.7 mphClear
11:53 PM23.0 °F19.9 °F88 %30.15 in9.0 miEast (100°)8.1 mphClear
Hourly data recorded from KLHX, located miles away from La Junta, Colorado







STORIES FROM OUR PARTNERS